Sussex, Wisconsin, United States (53089)
Lat: 43.13N, Lon: 88.22W
Wx Zone: WIZ065
Local Info
Past Weather Observations for Today

NOTE: This archive is for the closest National Weather Service station to Sussex. Information may differ from the station used for current weather conditions.

Click here for Long-term Archive

Time Weather Temperature Dewpoint Humidity Pressure Winds Precip Visibility
21:15
Clear
50°F / 10°C 46°F / 8°C 88% 30.04 in
(1017 mb)
Calm - 10SM
20:55
Clear
50°F / 10°C 46°F / 8°C 88% 30.04 in
(1017 mb)
Calm - 10SM
20:35
Clear
52°F / 11°C 46°F / 8°C 82% 30.04 in
(1017 mb)
Calm - 10SM
20:15
Clear
54°F / 12°C 46°F / 8°C 77% 30.04 in
(1017 mb)
Calm - 10SM
19:45
Clear
55°F / 13°C 48°F / 9°C 77% 30.04 in
(1017 mb)
Calm - 10SM
18:45
Clear
55°F / 13°C 48°F / 9°C 77% 30.01 in
(1016 mb)
Calm - 10SM
17:45
Partly Cloudy
63°F / 17°C 46°F / 8°C 56% 30.01 in
(1016 mb)
Calm - 10SM
16:45
Partly Cloudy
64°F / 18°C 46°F / 8°C 52% 29.98 in
(1015 mb)
NW 5.8 mph
(NW 9 kph)
- 10SM
15:45
Partly Cloudy
66°F / 19°C 45°F / 7°C 46% 29.98 in
(1015 mb)
NW 4.6 mph
(NW 7 kph)
- 10SM
14:45
Partly Cloudy
66°F / 19°C 45°F / 7°C 46% 30.01 in
(1016 mb)
WNW 5.8 mph
(WNW 9 kph)
- 10SM
13:45
Partly Cloudy
66°F / 19°C 45°F / 7°C 46% 30.01 in
(1016 mb)
W 5.8 mph
(W 9 kph)
- 10SM
12:45
Clear
64°F / 18°C 43°F / 6°C 46% 30.01 in
(1016 mb)
Calm - 10SM
11:45
Clear
64°F / 18°C 45°F / 7°C 49% 30.01 in
(1016 mb)
Calm - 10SM
10:45
Clear
63°F / 17°C 45°F / 7°C 52% 30.04 in
(1017 mb)
SSW 5.8 mph
(SSW 9 kph)
- 10SM
09:45
Clear
61°F / 16°C 45°F / 7°C 55% 30.04 in
(1017 mb)
W 5.8 mph
(W 9 kph)
- 10SM
08:45
Clear
57°F / 14°C 46°F / 8°C 67% 30.04 in
(1017 mb)
SW 3.5 mph
(SW 6 kph)
- 10SM
07:45
Clear
52°F / 11°C 46°F / 8°C 82% 30.04 in
(1017 mb)
Calm - 10SM
06:45
Partly Cloudy
46°F / 8°C 45°F / 7°C 93% 30.06 in
(1018 mb)
SSE 3.5 mph
(SSE 6 kph)
- 10SM
05:45
Clear
43°F / 6°C 41°F / 5°C 93% 30.06 in
(1018 mb)
SSE 3.5 mph
(SSE 6 kph)
- 10SM
04:45
Clear
39°F / 4°C 39°F / 4°C 100% 30.06 in
(1018 mb)
Calm - 10SM
04:35
Clear
37°F / 3°C 37°F / 3°C 100% 30.04 in
(1017 mb)
Calm - 7SM
04:15
Clear
Fog And Mist
39°F / 4°C 39°F / 4°C 100% 30.04 in
(1017 mb)
Calm - 5SM
03:55
Clear
39°F / 4°C 39°F / 4°C 100% 30.04 in
(1017 mb)
Calm - 7SM
03:35
Obscured
Fog And Mist
41°F / 5°C 39°F / 4°C 93% 30.04 in
(1017 mb)
Calm - 1 1/2SM
03:15
Clear
Fog And Mist
41°F / 5°C 39°F / 4°C 93% 30.06 in
(1018 mb)
Calm - 3SM
02:55
Clear
41°F / 5°C 39°F / 4°C 93% 30.06 in
(1018 mb)
Calm - 7SM
02:35
Clear
43°F / 6°C 41°F / 5°C 93% 30.06 in
(1018 mb)
Calm - 10SM
02:15
Clear
43°F / 6°C 43°F / 6°C 100% 30.06 in
(1018 mb)
SSE 3.5 mph
(SSE 6 kph)
- 10SM
01:55
Clear
45°F / 7°C 43°F / 6°C 93% 30.06 in
(1018 mb)
SW 5.8 mph
(SW 9 kph)
- 10SM
01:35
Clear
45°F / 7°C 43°F / 6°C 93% 30.06 in
(1018 mb)
SSE 4.6 mph
(SSE 7 kph)
- 10SM
01:15
Clear
45°F / 7°C 43°F / 6°C 93% 30.06 in
(1018 mb)
SSE 6.9 mph
(SSE 11 kph)
- 10SM
00:55
Clear
45°F / 7°C 43°F / 6°C 93% 30.06 in
(1018 mb)
Calm - 10SM
00:35
Clear
45°F / 7°C 43°F / 6°C 93% 30.09 in
(1019 mb)
S 3.5 mph
(S 6 kph)
- 10SM
00:15
Clear
46°F / 8°C 43°F / 6°C 87% 30.09 in
(1019 mb)
S 3.5 mph
(S 6 kph)
- 10SM
Time Weather Temperature Dewpoint Humidity Pressure Winds Precip Visibility


Weather for websites

WeatherForYou.com, LLC is not responsible for any damages or problems caused by this service. Current weather conditions are obtained from the closest station including government and personal stations which may have varying degrees of accuracy. Weather forecasts are derived from the NOAA NDFD. Like all things, this site belongs to Jesus Christ... He just trusts me to maintain it. If you have any questions or comments email webmaster@weatherforyou.com

Copyright © 2014, WeatherForYou.com LLC. All rights reserved.